Home > Weather > Bălți > Past weeks

Flag for Moldova Weather for the Past 2 Weeks in Bălți, Moldova

Now
52 °F

Passing clouds.


Feels Like: 49 °F
Forecast: 46 / 65 °F
Wind: 9 mph from Northwest

Location: Baltsi-Leadoveni - The North of Moldova

Current Time: May 6, 2016 at 5:45:22 AM

Latest Report: May 6, 2016 at 5:00 AM


Visibility: N/A

Pressure: 29.98 "Hg

Humidity: 77%

Dew Point: 45 °F

Location of BălțiLocation

Historic Weather in Bălți — Graph

°F

Bălți Temperature Yesterday

Maximum temperature yesterday: 73 °F (at 1:30 PM)
Minimum temperature yesterday: 50 °F (at 5:30 AM)
Average temperature yesterday: 61 °F

High & Low Weather Summary for the Past Weeks

 TemperatureHumidityPressure
High73 °F (May 5, 1:30 PM)100% (Apr 25, 5:00 AM)30.18 "Hg (Apr 25, 5:00 AM)
Low37 °F (Apr 27, 3:00 AM)27% (May 5, 1:30 PM)29.47 "Hg (Apr 24, 5:30 PM)
Average56 °F57%29.91 "Hg
* Reported Apr 21 4:00 AM — May 6 4:30 AM, Bălți, Weather by CustomWeather, © 2016

Note: Actual official high and low records may vary slightly from our data, if they occured in-between our weather recording intervals... More about our weather records

Advertising

Bălți Weather History for the Previous 24 Hours

Scroll right to see more
 ConditionsComfort  
Time TempWeatherWind HumidityBarometerVisibility
4:30 AM
Fri, May 6
54 °FPassing clouds.8 mph72%29.98 "HgN/A
4:00 AM52 °FPassing clouds.9 mph77%29.98 "HgN/A
3:30 AM54 °FPassing clouds.10 mph72%29.98 "HgN/A
3:00 AM54 °FPassing clouds.9 mph72%29.98 "HgN/A
2:30 AM52 °FPassing clouds.9 mph77%29.98 "HgN/A
2:00 AM54 °FPassing clouds.10 mph72%29.98 "HgN/A
1:30 AM54 °FPassing clouds.10 mph72%29.98 "HgN/A
1:00 AM54 °FPassing clouds.12 mph67%29.98 "HgN/A
12:30 AM52 °FPassing clouds.9 mph72%30.01 "HgN/A
12:00 AM54 °FPassing clouds.10 mph67%30.01 "HgN/A
11:30 PM
Thu, May 5
55 °FPassing clouds.10 mph63%29.98 "HgN/A
11:00 PM55 °FPassing clouds.8 mph63%29.98 "HgN/A
10:00 PM57 °FPassing clouds.10 mph55%29.98 "HgN/A
9:30 PM59 °FPassing clouds.8 mph51%29.98 "HgN/A
9:00 PM59 °FPassing clouds.9 mph51%29.98 "HgN/A
8:30 PM63 °FPassing clouds.10 mph45%29.98 "HgN/A
8:00 PM64 °FPassing clouds.13 mph43%29.98 "HgN/A
7:30 PM64 °FPassing clouds.3 mph46%29.95 "HgN/A
7:00 PM64 °FPassing clouds.6 mph46%29.98 "HgN/A
6:30 PM66 °FPassing clouds.10 mph40%29.98 "HgN/A
6:00 PM68 °FPassing clouds.17 mph38%29.95 "HgN/A
5:30 PM70 °FPassing clouds.10 mph38%29.95 "HgN/A
5:00 PM68 °FPassing clouds.9 mph35%29.95 "HgN/A
4:30 PM68 °FPassing clouds.14 mph35%29.95 "HgN/A
4:00 PM66 °FPassing clouds.21 mph37%29.95 "HgN/A
3:30 PM72 °FPassing clouds.15 mph31%29.95 "HgN/A
3:00 PM72 °FPassing clouds.14 mph29%29.95 "HgN/A
2:30 PM72 °FPassing clouds.14 mph29%29.95 "HgN/A
2:00 PM70 °FPassing clouds.17 mph29%29.95 "HgN/A
1:30 PM73 °FPassing clouds.16 mph27%29.95 "HgN/A
1:00 PM70 °FPassing clouds.15 mph29%29.98 "HgN/A
12:30 PM68 °FPassing clouds.16 mph33%29.98 "HgN/A
12:00 PM70 °FPassing clouds.16 mph31%29.98 "HgN/A
11:30 AM70 °FPassing clouds.15 mph33%29.98 "HgN/A
11:00 AM70 °FPassing clouds.13 mph35%29.98 "HgN/A
10:00 AM66 °FPassing clouds.13 mph43%29.98 "HgN/A
9:30 AM64 °FPassing clouds.13 mph46%29.98 "HgN/A
9:00 AM61 °FPassing clouds.12 mph52%29.98 "HgN/A
8:30 AM59 °FPassing clouds.9 mph51%29.98 "HgN/A
8:00 AM57 °FPassing clouds.9 mph55%29.98 "HgN/A
7:00 AM52 °FPassing clouds.10 mph62%29.98 "HgN/A
6:30 AM50 °FPassing clouds.9 mph62%29.95 "HgN/A
6:00 AM50 °FPassing clouds.9 mph62%29.95 "HgN/A
5:30 AM50 °FPassing clouds.8 mph62%29.95 "HgN/A
5:00 AM52 °FPassing clouds.10 mph58%29.95 "HgN/A
Weather by CustomWeather, © 2016

See weather overviewHow to use our weather pages